Content
SEND FEEDBACK

Daily
Averages
Monthly
Summary
Netherlands

ROTTERDAM, NETHERLANDS


Home > Europe > Netherlands
Elevation: 13 feet     Latitude: 51 57N     Longitude: 004 26E

WEATHER
 
SELECT A DAY
Number of Records: 414,982;   Date Range: 7/1/96 - 7/28/14
 
SHARE

PRINT THIS DATA

[ ← Previous Day ]
WEATHER ALMANAC - FEBRUARY 9, 2013
[ Next Day → ]
[ °C ]   °F
Weather ElementAverageHighLow
Temperature32.8 °F39.2 °F (2:55 pm)28.4 °F (1:25 am)
Dewpoint30.4 °F32 °F (9:55 am)26.6 °F (1:25 am)
Humidity91.1 %100 % (1:55 am)57 % (4:00 pm)
Barometer30.07 in30.13 in (10:00 am)29.95 in (11:55 pm)
Wind Speed7.5 mph15 mph (7:25 pm)
Wind Gust21.9 mph (12:55 pm)
Weather ElementAverage
Visibility6.9 mi
Wind DirectionS (178.7 °)

Weather ElementTotal
Precipitation---
Heating Degree Days31.2 (Base 65)
Averaged from 53 records on February 9, 2013
WEATHER CONDITIONS BREAKOUT
WIND DIRECTION BREAKOUT
WEATHER BY HOUR - FEBRUARY 9, 2013
[ °C ]   °F
Local TimeTemperatureDewpointHumidityBarometerVisibilityWind DirectionWind SpeedGust SpeedPrecipitationEventsConditions
12:55 AM30.2 °F28.4 °F93 %30.09 in6.2 miNW (320°)3.5 mphPartly Cloudy
1:00 AM29.0 °F28.0 °F93 %30.11 in19.0 miNNW (330°)2.2 mphPartly Cloudy
1:25 AM28.4 °F26.6 °F93 %30.09 in6.2 miVariable1.2 mphScattered Clouds
1:55 AM28.4 °F28.4 °F100 %30.09 in6.2 miVariable1.2 mphPartly Cloudy
2:25 AM28.4 °F26.6 °F93 %30.09 in6.2 miVariable1.2 mphPartly Cloudy
2:55 AM30.2 °F28.4 °F93 %30.09 in6.2 miNW (320°)3.5 mph
3:25 AM30.2 °F28.4 °F93 %30.09 in6.2 miNNW (340°)2.3 mphPartly Cloudy
3:55 AM30.2 °F30.2 °F100 %30.09 in6.2 miWNW (290°)3.5 mphScattered Clouds
4:00 AM30.0 °F30.0 °F98 %30.11 in14.0 miWNW (290°)2.2 mphPartly Cloudy
4:25 AM30.2 °F30.2 °F100 %30.09 in6.2 miVariable2.3 mphPartly Cloudy
4:55 AM30.2 °F30.2 °F100 %30.09 in6.2 miSW (230°)2.3 mphPartly Cloudy
5:25 AM30.2 °F30.2 °F100 %30.09 in6.2 miWest (260°)2.3 mph
5:55 AM30.2 °F30.2 °F100 %30.09 in6.2 miVariable1.2 mphMostly Cloudy
6:25 AM30.2 °F30.2 °F100 %30.09 in6.2 miSSW (200°)1.2 mphPartly Cloudy
6:55 AM30.2 °F30.2 °F100 %30.09 in6.2 miSouth (170°)2.3 mph
7:00 AM29.0 °F28.0 °F95 %30.11 in6.0 miSE (140°)2.2 mphMist
7:25 AM32.0 °F30.2 °F93 %30.09 in6.2 miSW (220°)2.3 mph
7:55 AM30.2 °F30.2 °F100 %30.09 in6.2 miVariable2.3 mph
8:25 AM30.2 °F30.2 °F100 %30.09 in5.6 miVariable2.3 mph
8:55 AM30.2 °F30.2 °F100 %30.12 in6.2 miEast (100°)1.2 mph
9:25 AM30.2 °F30.2 °F100 %30.09 in4.3 miSouth (190°)3.5 mph
9:55 AM33.8 °F32.0 °F93 %30.12 in6.2 miSSE (150°)3.5 mphPartly Cloudy
10:00 AM34.0 °F31.0 °F84 %30.13 in19.0 miSSE (150°)4.5 mphMostly Cloudy
10:25 AM35.6 °F32.0 °F87 %30.12 in6.2 miSSE (160°)5.8 mphOvercast
10:55 AM35.6 °F32.0 °F87 %30.12 in6.2 miSSE (160°)5.8 mphPartly Cloudy
11:25 AM37.4 °F32.0 °F81 %30.12 in6.2 miSSE (160°)9.2 mphMostly Cloudy
11:55 AM35.6 °F32.0 °F87 %30.12 in6.2 miSouth (170°)10.4 mphMostly Cloudy
12:25 PM37.4 °F32.0 °F81 %30.09 in6.2 miSouth (170°)11.5 mphPartly Cloudy
12:55 PM35.6 °F32.0 °F87 %30.09 in6.2 miSouth (180°)10.4 mph21.9 mphMostly Cloudy
1:00 PM37.0 °F32.0 °F76 %30.11 in19.0 miSouth (170°)8.9 mphPartly Cloudy
1:25 PM37.4 °F32.0 °F81 %30.09 in6.2 miSouth (180°)11.5 mphOvercast
1:55 PM37.4 °F32.0 °F81 %30.06 in6.2 miSouth (180°)12.7 mphPartly Cloudy
2:25 PM37.4 °F32.0 °F81 %30.06 in6.2 miSSW (200°)9.2 mphMostly Cloudy
2:55 PM39.2 °F28.4 °F65 %30.06 in6.2 miSW (220°)11.5 mphMostly Cloudy
3:25 PM37.4 °F28.4 °F70 %30.06 in6.2 miSW (230°)12.7 mphOvercast
3:55 PM37.4 °F26.6 °F65 %30.06 in6.2 miSW (220°)10.4 mphMostly Cloudy
4:00 PM37.0 °F27.0 °F57 %30.07 in25.0 miSW (230°)13.4 mphOvercast
4:55 PM35.6 °F28.4 °F75 %30.04 in6.2 miSSW (210°)11.5 mphMostly Cloudy
5:25 PM33.8 °F30.2 °F87 %30.04 in2.5 miSW (220°)13.8 mphSnowLight Snow
5:55 PM33.8 °F30.2 °F87 %30.04 in6.2 miSW (220°)11.5 mphSnowLight Snow
6:25 PM33.8 °F32.0 °F93 %30.04 in4.3 miSSW (200°)10.4 mphSnowLight Snow
6:55 PM33.8 °F32.0 °F93 %30.04 in6.2 miSSW (200°)11.5 mphSnowLight Snow Grains
7:00 PM33.0 °F32.0 °F92 %30.05 in6.0 miSSW (200°)13.4 mphSnowSnow Grains
7:25 PM32.0 °F32.0 °F100 %30.04 in3.7 miSSW (200°)15.0 mphSnowLight Snow
7:55 PM32.0 °F32.0 °F100 %30.04 in3.1 miSouth (190°)12.7 mphSnowLight Snow
8:25 PM32.0 °F32.0 °F100 %30.01 in1.6 miSouth (180°)13.8 mphSnowLight Snow
8:55 PM32.0 °F32.0 °F100 %30.01 in6.2 miSouth (190°)12.7 mphOvercast
9:25 PM32.0 °F32.0 °F100 %30.01 inSouth (190°)11.5 mphSnowLight Snow
9:55 PM32.0 °F32.0 °F100 %30.01 inSouth (190°)11.5 mphSnowLight Snow
10:00 PM33.0 °F31.0 °F92 %30.00 in3.0 miSouth (180°)11.2 mphSnowSnow Grains
10:25 PM32.0 °F32.0 °F100 %29.98 in3.7 miSouth (190°)12.7 mphOvercast
11:25 PM32.0 °F32.0 °F100 %29.98 in5.0 miSouth (190°)13.8 mphOvercast
11:55 PM32.0 °F32.0 °F100 %29.95 in2.2 miSouth (190°)13.8 mphSnowLight Snow
Hourly data recorded from EHRD, located miles away from Rotterdam, Netherlands







STORIES FROM OUR PARTNERS